Flag for Germany Weather past 2 weeks in Gladbeck, North Rhine-Westphalia, Germany

Now
66 °F

Partly sunny.


Feels Like: 66 °F
Forecast: 59 / 78 °F
Wind: 3 mph from Northeast

Location: Duesseldorf

Current Time: Jul 25, 2014 at 1:26:47 PM

Latest Report: Jul 25, 2014 at 1:00 PM


Visibility: 9 mi

Pressure: 29.96 "Hg

Humidity: 76%

Dew point: 58 °F

Location of GladbeckLocation

Historic Weather in Gladbeck — Graph

°F

Gladbeck temperature yesterday

Maximum temperature yesterday: 80 °F (at 4:00 PM)
Minimum temperature yesterday: 63 °F (at 10:00 PM)
Average temperature yesterday: 70 °F

Past Weeks' High & Low Weather Summary

 TemperatureHumidityPressure
High93 °F (Jul 19, 5:00 PM)96% (Jul 16, 6:00 AM)30.19 "Hg (Jul 16, 6:00 AM)
Low53 °F (Jul 15, 3:00 AM)25% (Jul 19, 3:00 PM)29.73 "Hg (Jul 13, 7:00 PM)
Average70 °F72%29.97 "Hg
* Reported Jul 10 12:00 Noon — Jul 25 12:00 Noon, Gladbeck, Weather by CustomWeather, © 2014

Note: Actual official high and low records may vary slightly from our data, if they occured in-between our weather recording intervals... More about our weather records

Advertising

Gladbeck weather history for previous 24 hours

 ConditionsComfort  
Time TempWeatherWind HumidityBarometerVisibility
12:00 PM
Jul 25
66 °FOvercast.5 mph77%29.98 "Hg9 mi
11:00 AM66 °FOvercast.5 mph76%29.98 "Hg12 mi
10:00 AM66 °FOvercast.3 mph76%29.98 "Hg12 mi
9:00 AM65 °FOvercast.3 mph78%29.98 "Hg12 mi
8:00 AM64 °FOvercast.5 mph80%29.97 "Hg12 mi
7:00 AM63 °FOvercast.5 mph81%29.97 "Hg16 mi
6:00 AM63 °FOvercast.5 mph78%29.97 "Hg16 mi
4:00 AM63 °FOvercast.3 mph78%29.97 "Hg19 mi
3:00 AM63 °FPassing clouds.1 mph83%29.98 "Hg22 mi
2:00 AM63 °FPassing clouds.2 mph79%29.98 "Hg22 mi
1:00 AM65 °FPassing clouds.5 mph78%29.98 "Hg19 mi
12:00 AM63 °FPassing clouds.2 mph84%29.98 "Hg25 mi
10:00 PM
Jul 24
63 °FPassing clouds.3 mph92%29.97 "Hg16 mi
9:00 PM65 °FThunderstorms. Partly sunny.2 mph91%29.98 "Hg19 mi
8:00 PM66 °FThundershowers. Partly sunny.3 mph73%29.95 "Hg16 mi
7:00 PM70 °FThunderstorms. Overcast.5 mph61%29.94 "Hg25 mi
6:00 PM72 °FThunderstorms. Overcast.2 mph68%29.95 "Hg19 mi
4:00 PM80 °FPartly sunny.7 mph39%29.94 "Hg28 mi
3:00 PM80 °FScattered clouds.7 mph43%29.95 "Hg25 mi
2:00 PM79 °FScattered clouds.7 mph46%29.96 "Hg22 mi
1:00 PM78 °FScattered clouds.7 mph51%29.97 "Hg22 mi
Weather by CustomWeather, © 2014

See weather overviewHow to use our weather pages